UAE318 OMDB-RJAA

Flight info

Callsign UAE318
Flight time N/A
Altitude 33000
Route ANVIX DCT UMAMI DCT PASOV DCT GERAR Z890 MCT Q250 KIPOL DCT RASKI/N0495F350 L639 BPL A791 CEA B465 AKSAG/N0487F370 B214 LADON/K0902F370 B214 BQ W21 NOB R474 TEBAK/K0900S1130 R474 GYA A599 ELNEX G204 MULOV V73 SUPAR B221 NINAS G327 TONIX/K0882S1190 G327 LAMEN/N0473F390 A593 SADLI Y590 BEDAR Y591 FUE Y23 OOITA Y40 MYE V40 KTE Y33 KOHWA Y55 GAKKI Y295 KOSKA
Aircraft A388/J-SADE2E3FGHIJ3J4J5M1RWXY/LB1D1

Departure

Time 2026-05-07 22:46
Airport Dubai International Airport (OMDB)

Arrival

Time N/A
Airport Narita International Airport (RJAA)
Time Latitude Longitude Altitude Speed Heading
2026-05-07 22:05 25.25204 55.35721 26 ft 0 kts 212°
2026-05-07 22:36 25.25208 55.35723 26 ft 3 kts 212°
2026-05-07 22:36 25.25231 55.35739 32 ft 4 kts 211°
2026-05-07 22:37 25.25252 55.35753 32 ft 2 kts 211°
2026-05-07 22:37 25.25270 55.35767 32 ft 4 kts 228°
2026-05-07 22:37 25.25279 55.35785 32 ft 4 kts 265°
2026-05-07 22:37 25.25274 55.35802 32 ft 3 kts 302°
2026-05-07 22:38 25.25260 55.35827 32 ft 4 kts 302°
2026-05-07 22:38 25.25257 55.35834 26 ft 0 kts 302°
2026-05-07 22:41 25.25262 55.35824 29 ft 4 kts 302°
2026-05-07 22:42 25.25282 55.35789 30 ft 7 kts 302°
2026-05-07 22:42 25.25312 55.35736 28 ft 9 kts 302°
2026-05-07 22:42 25.25356 55.35692 30 ft 6 kts 354°
2026-05-07 22:42 25.25409 55.35705 31 ft 9 kts 26°
2026-05-07 22:43 25.25462 55.35740 29 ft 9 kts 31°
2026-05-07 22:43 25.25522 55.35780 29 ft 12 kts 31°
2026-05-07 22:43 25.25577 55.35817 26 ft 6 kts 31°
2026-05-07 22:43 25.25586 55.35823 26 ft 0 kts 31°
2026-05-07 22:44 25.25587 55.35824 26 ft 1 kts 31°
2026-05-07 22:44 25.25604 55.35835 26 ft 3 kts 41°
2026-05-07 22:44 25.25609 55.35847 26 ft 1 kts 93°
2026-05-07 22:44 25.25607 55.35854 26 ft 1 kts 121°
2026-05-07 22:45 25.25597 55.35872 26 ft 4 kts 121°
2026-05-07 22:45 25.25573 55.35915 26 ft 15 kts 121°
2026-05-07 22:45 25.25396 55.36235 26 ft 85 kts 122°
2026-05-07 22:45 25.24979 55.36983 30 ft 143 kts 121°
2026-05-07 22:46 25.24378 55.38063 43 ft 179 kts 121°
2026-05-07 22:46 25.23729 55.39232 521 ft 175 kts 122°
2026-05-07 22:46 25.23087 55.40386 934 ft 181 kts 122°
2026-05-07 22:46 25.22406 55.41604 1137 ft 195 kts 121°
2026-05-07 22:47 25.21694 55.42917 1362 ft 202 kts 121°
2026-05-07 22:47 25.20961 55.44271 1597 ft 209 kts 122°
2026-05-07 22:47 25.20173 55.45663 1743 ft 217 kts 123°
2026-05-07 22:47 25.19357 55.47084 1882 ft 222 kts 122°
2026-05-07 22:48 25.18532 55.48544 2023 ft 226 kts 122°
2026-05-07 22:48 25.17706 55.50018 2117 ft 232 kts 122°
2026-05-07 22:48 25.16855 55.51553 2197 ft 237 kts 122°
2026-05-07 22:48 25.15976 55.53116 2269 ft 241 kts 123°
2026-05-07 22:49 25.15072 55.54704 2323 ft 251 kts 123°
2026-05-07 22:49 25.14100 55.56393 2539 ft 263 kts 123°
2026-05-07 22:49 25.13119 55.58108 3040 ft 265 kts 123°
2026-05-07 22:49 25.12163 55.59817 3610 ft 264 kts 123°
2026-05-07 22:50 25.11151 55.61506 4168 ft 263 kts 132°
2026-05-07 22:50 25.09887 55.62952 4639 ft 266 kts 138°
2026-05-07 22:50 25.08523 55.64431 4813 ft 283 kts 137°
2026-05-07 22:50 25.07112 55.65987 5232 ft 288 kts 136°
2026-05-07 22:51 25.06176 55.67024 5572 ft 289 kts 136°
2026-05-07 22:51 25.04746 55.68611 6053 ft 292 kts 136°
2026-05-07 22:51 25.02834 55.70729 6706 ft 295 kts 136°
2026-05-07 22:51 25.01383 55.72333 7209 ft 296 kts 136°
2026-05-07 22:52 25.00397 55.73423 7541 ft 297 kts 136°
2026-05-07 22:52 24.98949 55.75021 8030 ft 299 kts 136°
2026-05-07 22:52 24.97470 55.76653 8551 ft 301 kts 136°
2026-05-07 22:52 24.95985 55.78291 9059 ft 303 kts 136°
2026-05-07 22:53 24.94400 55.79820 9658 ft 302 kts 146°
2026-05-07 22:53 24.92580 55.80971 10166 ft 302 kts 157°
2026-05-07 22:53 24.90602 55.81880 10375 ft 315 kts 158°
2026-05-07 22:53 24.88536 55.82845 10522 ft 329 kts 157°
2026-05-07 22:54 24.86391 55.83870 10635 ft 343 kts 154°
2026-05-07 22:54 24.84342 55.85284 10921 ft 350 kts 140°
2026-05-07 22:54 24.82642 55.87184 11544 ft 346 kts 127°
2026-05-07 22:54 24.81237 55.89304 12038 ft 347 kts 124°
2026-05-07 22:55 24.80181 55.91690 12526 ft 348 kts 104°
2026-05-07 22:55 24.79961 55.94334 13139 ft 347 kts 85°
2026-05-07 22:55 24.80579 55.96907 13676 ft 351 kts 65°
2026-05-07 22:55 24.81946 55.99153 14089 ft 356 kts 53°
2026-05-07 22:56 24.83468 56.01332 14472 ft 359 kts 59°
2026-05-07 22:56 24.84445 56.03805 14881 ft 358 kts 78°
2026-05-07 22:56 24.84624 56.06540 15292 ft 360 kts 96°
2026-05-07 22:56 24.84050 56.09235 15686 ft 363 kts 106°
2026-05-07 22:57 24.83336 56.11917 16056 ft 366 kts 106°
2026-05-07 22:57 24.82638 56.14604 16473 ft 369 kts 105°
2026-05-07 22:57 24.81935 56.17338 16868 ft 372 kts 105°
2026-05-07 22:57 24.81228 56.20090 17265 ft 375 kts 105°
2026-05-07 22:58 24.80512 56.22868 17649 ft 378 kts 105°
2026-05-07 22:58 24.79787 56.25672 18043 ft 381 kts 105°
2026-05-07 22:58 24.79066 56.28459 18392 ft 383 kts 105°
2026-05-07 22:58 24.78332 56.31291 18767 ft 384 kts 105°
2026-05-07 22:59 24.77595 56.34135 19099 ft 387 kts 105°
2026-05-07 22:59 24.76851 56.37004 19385 ft 391 kts 106°
2026-05-07 22:59 24.76102 56.39888 19729 ft 392 kts 106°
2026-05-07 22:59 24.75348 56.42787 20004 ft 396 kts 106°
2026-05-07 23:00 24.74587 56.45711 20293 ft 399 kts 106°
2026-05-07 23:00 24.73823 56.48648 20643 ft 400 kts 106°
2026-05-07 23:00 24.73061 56.51574 20917 ft 404 kts 107°
2026-05-07 23:00 24.72284 56.54552 21185 ft 407 kts 106°
2026-05-07 23:01 24.71499 56.57560 21497 ft 409 kts 107°
2026-05-07 23:01 24.70711 56.60576 21766 ft 412 kts 106°
2026-05-07 23:01 24.69916 56.63615 22051 ft 414 kts 107°
2026-05-07 23:01 24.69116 56.66674 22343 ft 417 kts 107°
2026-05-07 23:02 24.68311 56.69746 22631 ft 419 kts 107°
2026-05-07 23:02 24.67510 56.72802 22921 ft 421 kts 107°
2026-05-07 23:02 24.66694 56.75911 23200 ft 424 kts 107°
2026-05-07 23:02 24.65871 56.79040 23457 ft 426 kts 107°
2026-05-07 23:03 24.64954 56.82141 23688 ft 427 kts 113°
2026-05-07 23:03 24.63666 56.85094 23926 ft 429 kts 121°
2026-05-07 23:03 24.62024 56.87838 24141 ft 430 kts 128°
2026-05-07 23:03 24.60176 56.90392 24361 ft 432 kts 129°
2026-05-07 23:04 24.58311 56.92998 24634 ft 433 kts 129°
2026-05-07 23:04 24.56447 56.95622 24864 ft 435 kts 129°
2026-05-07 23:04 24.54601 56.98222 25080 ft 437 kts 129°
2026-05-07 23:04 24.52719 57.00867 25316 ft 439 kts 129°
2026-05-07 23:05 24.50829 57.03521 25540 ft 442 kts 129°
2026-05-07 23:05 24.48921 57.06195 25778 ft 444 kts 129°
2026-05-07 23:05 24.47034 57.08839 26006 ft 446 kts 129°
2026-05-07 23:05 24.45114 57.11527 26251 ft 448 kts 129°
2026-05-07 23:06 24.43180 57.14233 26465 ft 451 kts 129°
2026-05-07 23:06 24.41241 57.16946 26718 ft 453 kts 129°
2026-05-07 23:06 24.39284 57.19681 26973 ft 456 kts 129°
2026-05-07 23:06 24.37319 57.22426 27235 ft 458 kts 129°
2026-05-07 23:07 24.35343 57.25185 27505 ft 460 kts 129°
2026-05-07 23:07 24.33359 57.27953 27770 ft 463 kts 129°
2026-05-07 23:07 24.31364 57.30737 28037 ft 465 kts 129°
2026-05-07 23:07 24.29381 57.33501 28318 ft 468 kts 129°
2026-05-07 23:08 24.27361 57.36315 28605 ft 470 kts 130°
2026-05-07 23:08 24.25327 57.39147 28889 ft 473 kts 130°
2026-05-07 23:08 24.23281 57.41993 29151 ft 476 kts 130°
2026-05-07 23:08 24.21225 57.44853 29469 ft 479 kts 130°
2026-05-07 23:09 24.19176 57.47701 29813 ft 480 kts 130°
2026-05-07 23:09 24.17101 57.50584 30088 ft 483 kts 130°
2026-05-07 23:09 24.15014 57.53482 30405 ft 484 kts 130°
2026-05-07 23:09 24.12917 57.56391 30696 ft 486 kts 130°
2026-05-07 23:10 24.10723 57.59207 30999 ft 486 kts 136°
2026-05-07 23:10 24.08256 57.61736 31308 ft 485 kts 142°
2026-05-07 23:10 24.05592 57.63933 31591 ft 485 kts 147°
2026-05-07 23:10 24.02815 57.66088 31872 ft 488 kts 147°
2026-05-07 23:11 24.00042 57.68265 32144 ft 490 kts 146°
2026-05-07 23:11 23.97308 57.70420 32468 ft 490 kts 146°
2026-05-07 23:11 23.94532 57.72606 32739 ft 492 kts 146°
2026-05-07 23:12 23.88863 57.77060 32756 ft 509 kts 146°
2026-05-07 23:12 23.83096 57.81585 32762 ft 514 kts 146°
2026-05-07 23:13 23.77263 57.86157 32757 ft 513 kts 146°
2026-05-07 23:13 23.71706 57.90983 32768 ft 516 kts 134°
2026-05-07 23:13 23.69485 57.94087 32756 ft 520 kts 123°
2026-05-07 23:14 23.67817 57.97593 32763 ft 522 kts 112°
2026-05-07 23:14 23.65509 58.05132 32746 ft 524 kts 109°
2026-05-07 23:15 23.63215 58.12636 32712 ft 524 kts 110°
2026-05-07 23:15 23.60896 58.20192 32699 ft 524 kts 110°
2026-05-07 23:16 23.59181 58.27935 32702 ft 526 kts 98°
2026-05-07 23:16 23.58770 58.35861 32702 ft 526 kts 92°
2026-05-07 23:17 23.58486 58.43847 32703 ft 526 kts 93°
2026-05-07 23:17 23.58190 58.51819 32707 ft 526 kts 93°
2026-05-07 23:18 23.57893 58.59811 32715 ft 526 kts 93°
2026-05-07 23:18 23.57597 58.67728 32722 ft 526 kts 93°
2026-05-07 23:19 23.57295 58.75704 32719 ft 526 kts 93°
2026-05-07 23:19 23.56989 58.83669 32719 ft 525 kts 93°
2026-05-07 23:20 23.56679 58.91620 33213 ft 527 kts 93°
2026-05-07 23:20 23.56523 58.95598 33649 ft 526 kts 93°
2026-05-07 23:20 23.56365 58.99595 34027 ft 525 kts 93°
2026-05-07 23:20 23.56207 59.03568 34409 ft 524 kts 93°
2026-05-07 23:21 23.56047 59.07547 34663 ft 522 kts 93°
2026-05-07 23:21 23.55729 59.15397 34724 ft 520 kts 93°
2026-05-07 23:22 23.54732 59.23200 34726 ft 519 kts 104°
2026-05-07 23:22 23.53129 59.30887 34723 ft 519 kts 103°
2026-05-07 23:23 23.51571 59.38528 34728 ft 519 kts 103°
2026-05-07 23:23 23.49989 59.46242 34732 ft 519 kts 103°
2026-05-07 23:24 23.48415 59.53885 34734 ft 519 kts 103°
2026-05-07 23:24 23.46825 59.61580 34732 ft 520 kts 103°
2026-05-07 23:25 23.45230 59.69277 34735 ft 520 kts 103°
2026-05-07 23:25 23.43641 59.76926 34736 ft 520 kts 103°
2026-05-07 23:26 23.42036 59.84634 34735 ft 520 kts 103°
2026-05-07 23:26 23.40440 59.92277 34730 ft 520 kts 103°
2026-05-07 23:27 23.38024 60.03814 34734 ft 520 kts 103°
2026-05-07 23:27 23.36418 60.11458 34739 ft 520 kts 103°
2026-05-07 23:28 23.34797 60.19149 34731 ft 521 kts 103°
2026-05-07 23:28 23.33174 60.26836 34733 ft 521 kts 103°
2026-05-07 23:29 23.31546 60.34522 34733 ft 521 kts 103°
2026-05-07 23:29 23.29926 60.42155 34734 ft 521 kts 103°
2026-05-07 23:30 23.28288 60.49851 34731 ft 521 kts 103°
2026-05-07 23:30 23.26646 60.57545 34732 ft 521 kts 103°
2026-05-07 23:31 23.25016 60.65167 34737 ft 521 kts 103°
2026-05-07 23:31 23.23366 60.72859 34737 ft 521 kts 103°
2026-05-07 23:32 23.21713 60.80549 34731 ft 521 kts 103°
2026-05-07 23:32 23.20065 60.88199 34732 ft 521 kts 103°
2026-05-07 23:33 23.18404 60.95885 34731 ft 521 kts 103°
2026-05-07 23:33 23.16751 61.03518 34732 ft 521 kts 103°
2026-05-07 23:34 23.15085 61.11190 34729 ft 521 kts 103°
2026-05-07 23:34 23.13423 61.18826 34733 ft 521 kts 103°
2026-05-07 23:35 23.11748 61.26500 34735 ft 521 kts 103°
2026-05-07 23:35 23.10070 61.34172 34744 ft 521 kts 103°
2026-05-07 23:36 23.08396 61.41804 34736 ft 521 kts 103°
2026-05-07 23:36 23.07202 61.48215 34738 ft 521 kts 96°
2026-05-07 23:37 23.06961 61.56072 34735 ft 520 kts 89°
2026-05-07 23:37 23.06987 61.63938 34738 ft 520 kts 89°
2026-05-07 23:38 23.06996 61.71805 34738 ft 520 kts 89°
2026-05-07 23:38 23.07004 61.79647 34739 ft 520 kts 89°
2026-05-07 23:39 23.07008 61.87529 34740 ft 521 kts 89°
2026-05-07 23:39 23.07009 61.95359 34736 ft 521 kts 89°
2026-05-07 23:40 23.07006 62.03229 34738 ft 521 kts 89°
2026-05-07 23:40 23.07000 62.11061 34741 ft 521 kts 89°
2026-05-07 23:41 23.06989 62.18946 34741 ft 521 kts 89°
2026-05-07 23:41 23.06974 62.26818 34740 ft 521 kts 89°
2026-05-07 23:42 23.06956 62.34656 34743 ft 521 kts 89°
2026-05-07 23:42 23.06934 62.42524 34743 ft 521 kts 89°
2026-05-07 23:43 23.06908 62.50419 34748 ft 521 kts 89°
2026-05-07 23:43 23.06877 62.58265 34749 ft 522 kts 89°
2026-05-07 23:44 23.06843 62.66151 34755 ft 522 kts 89°
2026-05-07 23:44 23.06805 62.74037 34754 ft 522 kts 89°
2026-05-07 23:45 23.06763 62.81910 34753 ft 522 kts 89°
2026-05-07 23:45 23.06717 62.89772 34754 ft 522 kts 89°
2026-05-07 23:46 23.06667 62.97663 34753 ft 522 kts 89°
2026-05-07 23:46 23.06614 63.05555 34756 ft 522 kts 89°
2026-05-07 23:47 23.06556 63.13449 34756 ft 522 kts 89°
2026-05-07 23:47 23.06495 63.21296 34758 ft 523 kts 89°
2026-05-07 23:48 23.06429 63.29211 34757 ft 523 kts 89°
2026-05-07 23:48 23.06360 63.37076 34759 ft 523 kts 89°
2026-05-07 23:49 23.06286 63.44982 34758 ft 523 kts 89°
2026-05-07 23:49 23.06209 63.52866 34759 ft 523 kts 89°
2026-05-07 23:50 23.06128 63.60766 34753 ft 524 kts 89°
2026-05-07 23:50 23.06043 63.68682 34753 ft 524 kts 89°
2026-05-07 23:51 23.05953 63.76614 34761 ft 524 kts 89°
2026-05-07 23:51 23.05862 63.84483 34763 ft 524 kts 89°
2026-05-07 23:52 23.05244 63.92395 34761 ft 525 kts 95°
2026-05-07 23:52 23.04448 64.00232 34756 ft 525 kts 95°
2026-05-07 23:53 23.03651 64.08123 34757 ft 526 kts 95°
2026-05-07 23:53 23.02843 64.16020 34756 ft 526 kts 95°
2026-05-07 23:54 23.02034 64.23879 34763 ft 526 kts 95°
2026-05-07 23:54 23.01214 64.31792 34760 ft 526 kts 95°
2026-05-07 23:55 23.00392 64.39693 34759 ft 526 kts 95°
2026-05-07 23:55 22.99569 64.47557 34761 ft 526 kts 95°
2026-05-07 23:56 22.98737 64.55474 34761 ft 527 kts 95°
2026-05-07 23:56 22.97903 64.63377 34763 ft 527 kts 95°
2026-05-07 23:57 22.97070 64.71228 34764 ft 527 kts 95°
2026-05-07 23:57 22.96227 64.79129 34761 ft 526 kts 95°
2026-05-07 23:58 22.95782 64.87059 34762 ft 524 kts 88°
2026-05-07 23:58 22.95855 64.94931 34759 ft 525 kts 88°
2026-05-07 23:59 22.95899 65.02885 34752 ft 525 kts 88°
2026-05-07 23:59 22.95939 65.10778 34760 ft 525 kts 88°
2026-05-08 00:00 22.95976 65.18712 34767 ft 525 kts 88°
2026-05-08 00:00 22.96009 65.26617 34768 ft 525 kts 88°
2026-05-08 00:01 22.96038 65.34549 34762 ft 525 kts 88°
2026-05-08 00:01 22.96064 65.42445 34766 ft 525 kts 88°
2026-05-08 00:02 22.96086 65.50382 34763 ft 525 kts 88°
2026-05-08 00:02 22.96103 65.58320 34759 ft 526 kts 88°
2026-05-08 00:03 22.96117 65.66273 34764 ft 526 kts 88°
2026-05-08 00:03 22.96127 65.74216 34767 ft 526 kts 88°
2026-05-08 00:04 22.96133 65.82120 34767 ft 526 kts 88°
2026-05-08 00:04 22.96134 65.90050 34770 ft 526 kts 88°
2026-05-08 00:05 22.96132 65.97966 34772 ft 526 kts 88°
2026-05-08 00:05 22.96126 66.05909 34776 ft 526 kts 88°
2026-05-08 00:06 22.96116 66.13852 34775 ft 526 kts 88°
2026-05-08 00:06 22.96102 66.21796 34776 ft 526 kts 88°
2026-05-08 00:07 22.96084 66.29689 34777 ft 526 kts 88°
2026-05-08 00:07 22.96063 66.37663 34764 ft 526 kts 88°
2026-05-08 00:08 22.96037 66.45560 34767 ft 526 kts 88°
2026-05-08 00:08 22.96007 66.53511 34766 ft 526 kts 88°
2026-05-08 00:09 22.95973 66.61467 34762 ft 527 kts 88°
2026-05-08 00:09 22.95936 66.69458 34774 ft 527 kts 88°
2026-05-08 00:10 22.95894 66.77377 34777 ft 528 kts 88°
2026-05-08 00:10 22.95848 66.85369 34786 ft 528 kts 88°
2026-05-08 00:11 22.95799 66.93302 34767 ft 529 kts 88°
2026-05-08 00:11 22.95771 67.01304 34772 ft 530 kts 88°
2026-05-08 00:12 22.95802 67.09310 34803 ft 530 kts 88°
2026-05-08 00:12 22.95824 67.17323 34801 ft 529 kts 88°
2026-05-08 00:13 22.95835 67.25292 34776 ft 529 kts 88°
2026-05-08 00:13 22.95841 67.33287 34775 ft 529 kts 88°
2026-05-08 00:14 22.95843 67.41254 34779 ft 529 kts 88°
2026-05-08 00:14 22.95842 67.49206 34784 ft 529 kts 88°
2026-05-08 00:15 22.95836 67.57215 34776 ft 530 kts 88°
2026-05-08 00:15 22.95826 67.65223 34784 ft 530 kts 88°
2026-05-08 00:16 22.95813 67.73187 34784 ft 531 kts 88°
2026-05-08 00:16 22.95795 67.81213 34790 ft 532 kts 88°
2026-05-08 00:17 22.95775 67.89260 34794 ft 532 kts 88°
2026-05-08 00:17 22.95785 67.97244 34799 ft 532 kts 88°
2026-05-08 00:18 22.95796 68.05298 34811 ft 532 kts 88°
2026-05-08 00:18 22.95799 68.13340 34809 ft 532 kts 88°
2026-05-08 00:19 22.95796 68.21325 34793 ft 532 kts 88°
2026-05-08 00:19 22.95790 68.29397 34786 ft 533 kts 88°
2026-05-08 00:20 22.95775 68.37446 34790 ft 533 kts 89°
2026-05-08 00:20 22.95334 68.45458 34791 ft 534 kts 91°
2026-05-08 00:21 22.94876 68.53515 34801 ft 535 kts 91°
2026-05-08 00:21 22.94491 68.60217 34794 ft 536 kts 91°
2026-05-08 00:22 22.93944 68.69611 34798 ft 536 kts 91°
2026-05-08 00:22 22.93547 68.76354 34805 ft 537 kts 91°
2026-05-08 00:23 22.93066 68.84461 34803 ft 537 kts 91°
2026-05-08 00:23 22.92581 68.92563 34798 ft 538 kts 91°
2026-05-08 00:24 22.92094 69.00614 34813 ft 537 kts 91°
2026-05-08 00:24 22.91601 69.08712 34811 ft 536 kts 91°
2026-05-08 00:25 22.91109 69.16735 34807 ft 536 kts 91°
2026-05-08 00:25 22.90607 69.24835 34796 ft 536 kts 91°
2026-05-08 00:26 22.90103 69.32910 34802 ft 536 kts 91°
2026-05-08 00:26 22.89598 69.40933 34802 ft 536 kts 91°
2026-05-08 00:27 22.89085 69.49027 34805 ft 537 kts 91°
2026-05-08 00:27 22.88568 69.57112 34802 ft 537 kts 91°
2026-05-08 00:28 22.88048 69.65169 34803 ft 538 kts 91°
2026-05-08 00:28 22.87529 69.73273 34808 ft 538 kts 91°
2026-05-08 00:29 22.87067 69.81384 34816 ft 538 kts 91°
2026-05-08 00:29 22.86604 69.89460 34809 ft 539 kts 91°
2026-05-08 00:30 22.86127 69.97617 34811 ft 540 kts 91°
2026-05-08 00:30 22.85648 70.05700 34814 ft 540 kts 91°
2026-05-08 00:31 22.85159 70.13855 34815 ft 541 kts 91°
2026-05-08 00:31 22.84670 70.21959 34816 ft 541 kts 91°
2026-05-08 00:32 22.84174 70.30124 34808 ft 541 kts 91°
2026-05-08 00:32 22.83673 70.38291 34811 ft 541 kts 91°
2026-05-08 00:33 22.83171 70.46403 34812 ft 541 kts 91°
2026-05-08 00:33 22.82663 70.54545 34835 ft 540 kts 91°
2026-05-08 00:34 22.82151 70.62679 34814 ft 540 kts 91°
2026-05-08 00:34 22.81638 70.70766 34808 ft 540 kts 91°
2026-05-08 00:35 22.81119 70.78888 34804 ft 539 kts 91°
2026-05-08 00:35 22.81374 70.86966 34807 ft 534 kts 78°
2026-05-08 00:36 22.82580 70.94852 34798 ft 534 kts 77°
2026-05-08 00:36 22.83770 71.02820 34802 ft 534 kts 77°
2026-05-08 00:37 22.84957 71.10796 34797 ft 535 kts 77°
2026-05-08 00:38 22.86726 71.22699 34803 ft 535 kts 77°
2026-05-08 00:38 22.87910 71.30692 34804 ft 536 kts 77°
2026-05-08 00:39 22.89088 71.38679 34805 ft 536 kts 77°
2026-05-08 00:39 22.90257 71.46629 34806 ft 536 kts 78°
2026-05-08 00:40 22.91428 71.54620 34803 ft 536 kts 78°
2026-05-08 00:40 22.92595 71.62617 34801 ft 536 kts 78°
2026-05-08 00:41 22.93751 71.70566 34797 ft 536 kts 78°
2026-05-08 00:41 22.94912 71.78575 34798 ft 537 kts 78°
2026-05-08 00:42 22.96070 71.86597 34788 ft 537 kts 78°
2026-05-08 00:42 22.97224 71.94615 34802 ft 538 kts 78°
2026-05-08 00:43 22.98370 72.02605 34795 ft 538 kts 78°
2026-05-08 00:43 22.99523 72.10637 34794 ft 538 kts 78°
2026-05-08 00:44 23.00672 72.18669 34794 ft 538 kts 78°
2026-05-08 00:44 23.01801 72.26653 34795 ft 539 kts 78°
2026-05-08 00:45 23.02920 72.34712 34801 ft 539 kts 78°
2026-05-08 00:45 23.04074 72.42777 34801 ft 539 kts 78°
2026-05-08 00:46 23.05190 72.50781 34818 ft 539 kts 78°
2026-05-08 00:46 23.06324 72.58867 34815 ft 539 kts 78°
2026-05-08 00:47 23.07111 72.66947 34821 ft 543 kts 84°
2026-05-08 00:47 23.07553 72.75158 34822 ft 543 kts 83°
2026-05-08 00:48 23.08016 72.83313 34825 ft 543 kts 84°
2026-05-08 00:48 23.08473 72.91524 34818 ft 543 kts 84°
2026-05-08 00:49 23.08922 72.99733 34813 ft 545 kts 84°
2026-05-08 00:49 23.09365 73.07907 34825 ft 545 kts 84°
2026-05-08 00:50 23.09807 73.16137 34817 ft 545 kts 84°
2026-05-08 00:50 23.10245 73.24378 34825 ft 545 kts 84°
2026-05-08 00:51 23.10677 73.32567 34834 ft 546 kts 84°
2026-05-08 00:51 23.11108 73.40835 34837 ft 547 kts 84°
2026-05-08 00:52 23.11534 73.49090 34834 ft 547 kts 84°
2026-05-08 00:52 23.11952 73.57290 34833 ft 547 kts 84°
2026-05-08 00:53 23.12370 73.65560 34851 ft 547 kts 84°
2026-05-08 00:53 23.12785 73.73831 34847 ft 547 kts 84°
2026-05-08 00:54 23.13191 73.82046 34867 ft 548 kts 84°
2026-05-08 00:54 23.13596 73.90317 34869 ft 548 kts 84°
2026-05-08 00:55 23.13998 73.98605 34869 ft 548 kts 84°
2026-05-08 00:55 23.14393 74.06850 34874 ft 549 kts 85°
2026-05-08 00:56 23.14787 74.15156 34877 ft 549 kts 85°
2026-05-08 00:56 23.15174 74.23409 34885 ft 549 kts 85°
2026-05-08 00:57 23.15560 74.31718 34887 ft 549 kts 85°
2026-05-08 00:57 23.15858 74.39987 34915 ft 551 kts 87°
2026-05-08 00:58 23.15992 74.48342 34911 ft 552 kts 87°
2026-05-08 00:58 23.16143 74.56684 34918 ft 551 kts 87°
2026-05-08 00:59 23.16306 74.64980 34930 ft 551 kts 87°
2026-05-08 00:59 23.16469 74.73321 34925 ft 551 kts 87°
2026-05-08 01:00 23.16626 74.81620 34931 ft 552 kts 87°
2026-05-08 01:00 23.16780 74.89979 34940 ft 552 kts 87°
2026-05-08 01:01 23.16928 74.98280 34933 ft 551 kts 87°
2026-05-08 01:01 23.17073 75.06622 34949 ft 552 kts 87°
2026-05-08 01:02 23.17214 75.14998 34954 ft 553 kts 87°
2026-05-08 01:02 23.17349 75.23319 34957 ft 553 kts 87°
2026-05-08 01:03 23.17481 75.31667 34961 ft 553 kts 87°
2026-05-08 01:03 23.17608 75.40001 34969 ft 553 kts 87°
2026-05-08 01:04 23.17731 75.48387 34971 ft 554 kts 87°
2026-05-08 01:04 23.17850 75.56766 34970 ft 554 kts 87°
2026-05-08 01:05 23.17963 75.65088 34970 ft 554 kts 87°
2026-05-08 01:05 23.18073 75.73467 34978 ft 554 kts 87°
2026-05-08 01:06 23.18179 75.81850 34983 ft 555 kts 87°
2026-05-08 01:06 23.18280 75.90259 34981 ft 555 kts 87°
2026-05-08 01:07 23.18377 75.98612 34979 ft 555 kts 87°
2026-05-08 01:07 23.18819 76.05566 34975 ft 553 kts 83°
2026-05-08 01:08 23.19483 76.13895 34976 ft 553 kts 83°
2026-05-08 01:08 23.20137 76.22287 34990 ft 557 kts 83°
2026-05-08 01:09 23.20779 76.30652 34989 ft 556 kts 83°
2026-05-08 01:09 23.21418 76.39043 34977 ft 556 kts 83°
2026-05-08 01:10 23.22055 76.47448 34974 ft 556 kts 83°
2026-05-08 01:10 23.22685 76.55811 34987 ft 558 kts 83°
2026-05-08 01:11 23.23311 76.64199 34983 ft 558 kts 83°
2026-05-08 01:11 23.23936 76.72614 34983 ft 558 kts 83°
2026-05-08 01:12 23.24555 76.81030 34981 ft 558 kts 83°
2026-05-08 01:12 23.25172 76.89466 34991 ft 559 kts 83°
2026-05-08 01:13 23.25780 76.97848 34988 ft 559 kts 83°
2026-05-08 01:13 23.26388 77.06300 34998 ft 559 kts 83°
2026-05-08 01:14 23.26991 77.14737 35003 ft 559 kts 83°
2026-05-08 01:14 23.27588 77.23147 35020 ft 559 kts 84°
2026-05-08 01:15 23.28183 77.31622 35024 ft 561 kts 84°
2026-05-08 01:15 23.28060 77.40080 35022 ft 562 kts 91°
2026-05-08 01:16 23.27708 77.48599 35018 ft 563 kts 91°
2026-05-08 01:16 23.27363 77.57107 35006 ft 562 kts 91°
2026-05-08 01:17 23.27010 77.65567 35002 ft 563 kts 91°
2026-05-08 01:17 23.26647 77.74100 34988 ft 563 kts 91°
2026-05-08 01:18 23.26281 77.82593 34969 ft 560 kts 92°
2026-05-08 01:18 23.25914 77.90995 34964 ft 560 kts 92°
2026-05-08 01:19 23.25540 77.99482 34974 ft 561 kts 92°
2026-05-08 01:19 23.25160 78.07973 34972 ft 561 kts 92°
2026-05-08 01:20 23.24778 78.16420 34975 ft 562 kts 92°
2026-05-08 01:20 23.24388 78.24937 34971 ft 561 kts 92°
2026-05-08 01:21 23.23995 78.33426 34965 ft 561 kts 92°
2026-05-08 01:21 23.23600 78.41856 34969 ft 561 kts 92°
2026-05-08 01:22 23.23197 78.50356 34967 ft 561 kts 92°
2026-05-08 01:22 23.22793 78.58799 34964 ft 561 kts 92°
2026-05-08 01:23 23.22382 78.67271 34965 ft 562 kts 92°
2026-05-08 01:23 23.21973 78.75750 34976 ft 563 kts 91°
2026-05-08 01:24 23.21847 78.84283 34976 ft 563 kts 89°
2026-05-08 01:24 23.21773 78.92815 34982 ft 563 kts 90°
2026-05-08 01:25 23.21656 79.01291 34975 ft 563 kts 90°
2026-05-08 01:25 23.21522 79.09817 34985 ft 564 kts 90°
2026-05-08 01:26 23.21381 79.18374 34984 ft 564 kts 90°
2026-05-08 01:26 23.21237 79.26875 34984 ft 565 kts 90°
2026-05-08 01:27 23.21088 79.35415 34982 ft 564 kts 90°
2026-05-08 01:27 23.20935 79.43955 34989 ft 565 kts 91°
2026-05-08 01:28 23.20778 79.52450 34991 ft 565 kts 91°
2026-05-08 01:28 23.20579 79.60999 34989 ft 565 kts 92°
2026-05-08 01:29 23.20191 79.69556 34988 ft 565 kts 92°
2026-05-08 01:29 23.19807 79.78061 34989 ft 565 kts 92°
2026-05-08 01:30 23.19436 79.86611 34989 ft 566 kts 92°
2026-05-08 01:30 23.19065 79.95162 34990 ft 566 kts 92°
2026-05-08 01:31 23.18691 80.03657 34999 ft 566 kts 92°
2026-05-08 01:31 23.18288 80.12205 34993 ft 566 kts 93°
2026-05-08 01:32 23.17840 80.20710 34999 ft 566 kts 94°
2026-05-08 01:32 23.17390 80.29259 35000 ft 566 kts 94°
2026-05-08 01:33 23.16941 80.37808 35006 ft 566 kts 94°
2026-05-08 01:33 23.16487 80.46368 35011 ft 566 kts 94°
2026-05-08 01:34 23.16031 80.54870 35014 ft 566 kts 94°
2026-05-08 01:34 23.15566 80.63454 35018 ft 566 kts 94°
2026-05-08 01:35 23.15101 80.71963 34991 ft 566 kts 94°
2026-05-08 01:35 23.14635 80.80449 34995 ft 564 kts 94°
2026-05-08 01:36 23.14173 80.88993 34990 ft 565 kts 94°
2026-05-08 01:36 23.13709 80.97538 34996 ft 565 kts 94°
2026-05-08 01:37 23.13242 81.06005 34990 ft 564 kts 94°
2026-05-08 01:37 23.12766 81.14530 34990 ft 565 kts 94°
2026-05-08 01:38 23.12288 81.23010 34994 ft 565 kts 94°
2026-05-08 01:38 23.11802 81.31553 35010 ft 566 kts 95°
2026-05-08 01:39 23.11314 81.40077 35012 ft 566 kts 95°
2026-05-08 01:39 23.10822 81.48574 35013 ft 566 kts 95°
2026-05-08 01:40 23.10321 81.57142 35006 ft 566 kts 95°
2026-05-08 01:40 23.09820 81.65625 35006 ft 566 kts 95°
2026-05-08 01:41 23.09309 81.74203 35008 ft 567 kts 95°
2026-05-08 01:41 23.08795 81.82754 35011 ft 567 kts 95°
2026-05-08 01:42 23.08281 81.91245 35009 ft 567 kts 95°
2026-05-08 01:42 23.07757 81.99807 35012 ft 567 kts 95°
2026-05-08 01:43 23.07229 82.08357 35012 ft 567 kts 95°
2026-05-08 01:43 23.06700 82.16862 35015 ft 567 kts 95°
2026-05-08 01:44 23.06297 82.25419 35019 ft 567 kts 93°
2026-05-08 01:44 23.05960 82.33942 35013 ft 567 kts 94°
2026-05-08 01:45 23.05594 82.42515 35015 ft 567 kts 94°
2026-05-08 01:45 23.05214 82.51070 35010 ft 566 kts 94°
2026-05-08 01:46 23.04830 82.59581 35016 ft 567 kts 94°
2026-05-08 01:46 23.04440 82.68136 35016 ft 567 kts 94°
2026-05-08 01:47 23.04045 82.76687 35012 ft 566 kts 94°
2026-05-08 01:47 23.03648 82.85204 35017 ft 567 kts 94°
2026-05-08 01:48 23.03040 82.98070 35022 ft 567 kts 94°
2026-05-08 01:48 23.02629 83.06612 35025 ft 567 kts 94°
2026-05-08 01:49 23.02217 83.15110 35025 ft 567 kts 94°
2026-05-08 01:49 23.01796 83.23691 35045 ft 568 kts 95°
2026-05-08 01:50 23.01370 83.32260 35067 ft 568 kts 95°
2026-05-08 01:50 23.00944 83.40769 35064 ft 568 kts 95°
2026-05-08 01:51 23.00510 83.49333 35084 ft 567 kts 95°
2026-05-08 01:51 23.00070 83.57916 35079 ft 568 kts 95°
2026-05-08 01:52 22.99627 83.66465 35088 ft 568 kts 95°
2026-05-08 01:52 22.99254 83.73597 35090 ft 568 kts 95°
2026-05-08 01:53 22.98801 83.82171 35105 ft 568 kts 95°
2026-05-08 01:53 22.98345 83.90734 35067 ft 567 kts 95°
2026-05-08 01:54 22.97887 83.99253 35078 ft 567 kts 95°
2026-05-08 01:54 22.97424 84.07749 35081 ft 567 kts 95°
2026-05-08 01:55 22.96939 84.16299 35081 ft 567 kts 96°
2026-05-08 01:55 22.96306 84.24860 35091 ft 567 kts 97°
2026-05-08 01:56 22.95670 84.33349 35086 ft 566 kts 97°
2026-05-08 01:56 22.95044 84.41872 35094 ft 566 kts 97°
2026-05-08 01:57 22.94420 84.50354 35088 ft 566 kts 97°
2026-05-08 01:57 22.93787 84.58892 35097 ft 566 kts 97°
2026-05-08 01:58 22.93151 84.67415 35102 ft 566 kts 97°
2026-05-08 01:58 22.92514 84.75886 35102 ft 565 kts 97°
2026-05-08 01:59 22.91869 84.84398 35108 ft 566 kts 97°
2026-05-08 01:59 22.91222 84.92883 35108 ft 565 kts 97°
2026-05-08 02:00 22.90568 85.01394 35115 ft 566 kts 97°
2026-05-08 02:00 22.89914 85.09861 35106 ft 565 kts 97°
2026-05-08 02:01 22.89252 85.18379 35109 ft 565 kts 97°
2026-05-08 02:01 22.88596 85.26881 35109 ft 565 kts 97°
2026-05-08 02:02 22.87938 85.35356 35113 ft 565 kts 97°
2026-05-08 02:02 22.87273 85.43854 35107 ft 565 kts 97°
2026-05-08 02:03 22.86602 85.52357 35103 ft 566 kts 97°
2026-05-08 02:03 22.85931 85.60806 35093 ft 565 kts 97°
2026-05-08 02:04 22.85250 85.69330 35097 ft 565 kts 97°
2026-05-08 02:04 22.84567 85.77811 35085 ft 565 kts 98°
2026-05-08 02:05 22.83882 85.86267 35064 ft 565 kts 98°
2026-05-08 02:05 22.83186 85.94792 35040 ft 565 kts 98°
2026-05-08 02:06 22.82489 86.03288 35025 ft 565 kts 98°
2026-05-08 02:06 22.81792 86.11726 35019 ft 565 kts 98°
2026-05-08 02:07 22.81103 86.20240 35012 ft 565 kts 97°
2026-05-08 02:07 22.80669 86.28684 35051 ft 564 kts 95°
2026-05-08 02:08 22.80251 86.37204 35043 ft 565 kts 96°
2026-05-08 02:08 22.79799 86.45664 35042 ft 564 kts 96°
2026-05-08 02:09 22.79331 86.54179 35031 ft 564 kts 96°
2026-05-08 02:09 22.78862 86.62625 35021 ft 563 kts 96°
2026-05-08 02:10 22.78386 86.71097 35013 ft 563 kts 96°
2026-05-08 02:10 22.77905 86.79585 35001 ft 563 kts 96°
2026-05-08 02:11 22.77421 86.88060 35002 ft 563 kts 96°
2026-05-08 02:11 22.76936 86.96477 34983 ft 562 kts 96°
2026-05-08 02:12 22.76443 87.04946 34983 ft 562 kts 96°
2026-05-08 02:12 22.75950 87.13345 34975 ft 562 kts 97°
2026-05-08 02:13 22.75448 87.21805 34956 ft 560 kts 96°
2026-05-08 02:13 22.74945 87.30219 34957 ft 559 kts 97°
2026-05-08 02:14 22.74437 87.38650 34951 ft 559 kts 97°
2026-05-08 02:14 22.73927 87.47024 34952 ft 559 kts 97°
2026-05-08 02:15 22.73411 87.55437 34955 ft 559 kts 97°
2026-05-08 02:15 22.72893 87.63806 34954 ft 559 kts 97°
2026-05-08 02:16 22.72368 87.72217 34952 ft 559 kts 97°
2026-05-08 02:16 22.71837 87.80646 34952 ft 559 kts 97°
2026-05-08 02:17 22.71306 87.89004 34955 ft 559 kts 97°
2026-05-08 02:17 22.70766 87.97443 34954 ft 559 kts 97°
2026-05-08 02:18 22.70227 88.05799 34952 ft 559 kts 97°
2026-05-08 02:18 22.69678 88.14237 34949 ft 559 kts 97°
2026-05-08 02:19 22.69129 88.22604 34953 ft 559 kts 97°
2026-05-08 02:19 22.68573 88.31012 34959 ft 559 kts 97°
2026-05-08 02:20 22.68016 88.39377 34960 ft 559 kts 97°
2026-05-08 02:20 22.67177 88.47743 34951 ft 555 kts 105°
2026-05-08 02:21 22.65792 88.55914 34952 ft 554 kts 104°
2026-05-08 02:21 22.64431 88.64147 34950 ft 554 kts 104°
2026-05-08 02:22 22.63069 88.72324 34946 ft 554 kts 104°
2026-05-08 02:22 22.61690 88.80554 34947 ft 554 kts 104°
2026-05-08 02:23 22.60309 88.88764 34941 ft 554 kts 104°
2026-05-08 02:23 22.59083 88.96964 34944 ft 556 kts 100°
2026-05-08 02:24 22.58187 89.05284 34934 ft 556 kts 100°
2026-05-08 02:24 22.57274 89.13601 34935 ft 556 kts 100°
2026-05-08 02:25 22.56359 89.21876 34936 ft 556 kts 101°
2026-05-08 02:25 22.55435 89.30198 34927 ft 555 kts 101°
2026-05-08 02:26 22.54508 89.38498 34930 ft 555 kts 101°
2026-05-08 02:26 22.53584 89.46743 34933 ft 555 kts 101°
2026-05-08 02:27 22.52648 89.55055 34927 ft 555 kts 101°
2026-05-08 02:27 22.51707 89.63364 34926 ft 555 kts 101°
2026-05-08 02:28 22.50770 89.71605 34931 ft 555 kts 101°
2026-05-08 02:28 22.49821 89.79914 34931 ft 555 kts 101°
2026-05-08 02:29 22.48869 89.88206 34926 ft 555 kts 101°
2026-05-08 02:29 22.47918 89.96455 34925 ft 555 kts 101°
2026-05-08 02:30 22.46959 90.04737 34919 ft 554 kts 101°
2026-05-08 02:30 22.45995 90.13021 34919 ft 554 kts 101°
2026-05-08 02:31 22.45034 90.21244 34897 ft 552 kts 101°
2026-05-08 02:31 22.44065 90.29499 34896 ft 552 kts 101°
2026-05-08 02:32 22.43098 90.37691 34897 ft 552 kts 101°
2026-05-08 02:32 22.42118 90.45965 34890 ft 553 kts 101°
2026-05-08 02:33 22.41138 90.54210 34888 ft 552 kts 101°
2026-05-08 02:33 22.40158 90.62412 34886 ft 552 kts 101°
2026-05-08 02:34 22.39168 90.70655 34886 ft 553 kts 101°
2026-05-08 02:34 22.38178 90.78871 34887 ft 553 kts 101°
2026-05-08 02:35 22.37180 90.87112 34887 ft 552 kts 101°
2026-05-08 02:35 22.36177 90.95364 34884 ft 552 kts 101°
2026-05-08 02:36 22.35174 91.03575 34886 ft 553 kts 101°
2026-05-08 02:36 22.34166 91.11799 34880 ft 553 kts 101°
2026-05-08 02:37 22.33156 91.19998 34883 ft 553 kts 101°
2026-05-08 02:37 22.32308 91.26857 34886 ft 553 kts 101°
2026-05-08 02:38 22.31285 91.35108 34883 ft 553 kts 101°
2026-05-08 02:38 22.30290 91.43349 34885 ft 553 kts 101°
2026-05-08 02:39 22.29368 91.51550 34890 ft 553 kts 101°
2026-05-08 02:39 22.28429 91.59814 34890 ft 553 kts 101°
2026-05-08 02:40 22.27480 91.68060 34899 ft 553 kts 101°
2026-05-08 02:40 22.26525 91.76305 34899 ft 553 kts 101°
2026-05-08 02:41 22.25578 91.84508 34897 ft 553 kts 99°
2026-05-08 02:41 22.24983 91.92831 34877 ft 555 kts 97°
2026-05-08 02:42 22.24460 92.01139 34881 ft 555 kts 97°
2026-05-08 02:42 22.23884 92.09411 34882 ft 555 kts 98°
2026-05-08 02:43 22.23285 92.17735 34884 ft 555 kts 98°
2026-05-08 02:43 22.22682 92.26029 34883 ft 554 kts 98°
2026-05-08 02:44 22.22138 92.34313 34879 ft 555 kts 97°
2026-05-08 02:44 22.21661 92.42627 34882 ft 554 kts 97°
2026-05-08 02:45 22.21169 92.50884 34878 ft 556 kts 97°
2026-05-08 02:45 22.20662 92.59211 34876 ft 554 kts 97°
2026-05-08 02:46 22.20146 92.67545 34887 ft 554 kts 97°
2026-05-08 02:46 22.19587 92.75774 34894 ft 552 kts 97°
2026-05-08 02:47 22.19023 92.84056 34893 ft 552 kts 98°
2026-05-08 02:47 22.18461 92.92349 34910 ft 553 kts 97°
2026-05-08 02:48 22.17900 93.00575 34901 ft 552 kts 98°
2026-05-08 02:48 22.17325 93.08874 34930 ft 554 kts 98°
2026-05-08 02:49 22.16752 93.17160 34929 ft 551 kts 98°
2026-05-08 02:49 22.16175 93.25382 34947 ft 554 kts 98°
2026-05-08 02:50 22.15590 93.33680 34942 ft 554 kts 98°
2026-05-08 02:50 22.14998 93.41986 34951 ft 554 kts 98°
2026-05-08 02:51 22.14412 93.50238 34950 ft 554 kts 98°
2026-05-08 02:51 22.13818 93.58524 34933 ft 552 kts 98°
2026-05-08 02:52 22.13218 93.66755 34938 ft 554 kts 98°
2026-05-08 02:52 22.12612 93.75059 34937 ft 554 kts 98°
2026-05-08 02:53 22.12002 93.83351 34919 ft 555 kts 98°
2026-05-08 02:53 22.11389 93.91640 34918 ft 552 kts 98°
2026-05-08 02:54 22.10770 93.99911 34893 ft 554 kts 98°
2026-05-08 02:54 22.10151 94.08150 34894 ft 553 kts 98°
2026-05-08 02:55 22.09212 94.20560 34875 ft 554 kts 98°
2026-05-08 02:56 22.08583 94.28812 34864 ft 552 kts 98°
2026-05-08 02:56 22.07946 94.37084 34864 ft 552 kts 98°
2026-05-08 02:57 22.07310 94.45294 34864 ft 553 kts 98°
2026-05-08 02:57 22.06665 94.53591 34860 ft 553 kts 98°
2026-05-08 02:58 22.06022 94.61797 34849 ft 552 kts 98°
2026-05-08 02:58 22.05370 94.70055 34849 ft 551 kts 98°
2026-05-08 02:59 22.04718 94.78262 34832 ft 552 kts 98°
2026-05-08 02:59 22.04059 94.86509 34833 ft 552 kts 98°
2026-05-08 03:00 22.03395 94.94768 34827 ft 552 kts 98°
2026-05-08 03:00 22.02732 95.02968 34821 ft 551 kts 98°
2026-05-08 03:01 22.02060 95.11220 34822 ft 551 kts 98°
2026-05-08 03:01 22.01388 95.19414 34820 ft 551 kts 98°
2026-05-08 03:02 22.00708 95.27663 34819 ft 551 kts 98°
2026-05-08 03:02 22.00030 95.35841 34814 ft 551 kts 98°
2026-05-08 03:03 21.99343 95.44074 34814 ft 550 kts 98°
2026-05-08 03:03 21.98653 95.52293 34809 ft 550 kts 98°
2026-05-08 03:04 21.97962 95.60470 34811 ft 550 kts 98°
2026-05-08 03:04 21.97263 95.68702 34809 ft 550 kts 98°
2026-05-08 03:05 21.96558 95.76944 34808 ft 551 kts 98°
2026-05-08 03:05 21.95855 95.85121 34808 ft 551 kts 98°
2026-05-08 03:06 21.95143 95.93353 34804 ft 551 kts 98°
2026-05-08 03:06 21.94426 96.01600 34805 ft 551 kts 98°
2026-05-08 03:07 21.93710 96.09790 34818 ft 552 kts 98°
2026-05-08 03:07 21.92247 96.17871 34820 ft 548 kts 109°
2026-05-08 03:08 21.90282 96.25822 34833 ft 548 kts 108°
2026-05-08 03:08 21.88364 96.33729 34831 ft 548 kts 108°
2026-05-08 03:09 21.86429 96.41670 34846 ft 547 kts 108°
2026-05-08 03:09 21.84488 96.49590 34836 ft 548 kts 108°
2026-05-08 03:10 21.82544 96.57513 34847 ft 546 kts 108°
2026-05-08 03:10 21.80605 96.65388 34849 ft 547 kts 108°
2026-05-08 03:11 21.78651 96.73303 34851 ft 547 kts 108°
2026-05-08 03:11 21.76687 96.81235 34851 ft 547 kts 108°
2026-05-08 03:12 21.74735 96.89113 34855 ft 546 kts 108°
2026-05-08 03:12 21.72778 96.97002 34850 ft 545 kts 108°
2026-05-08 03:13 21.70811 97.04907 34858 ft 546 kts 108°
2026-05-08 03:13 21.68853 97.12756 34856 ft 545 kts 108°
2026-05-08 03:14 21.66879 97.20655 34862 ft 546 kts 108°
2026-05-08 03:14 21.64913 97.28503 34858 ft 545 kts 108°
2026-05-08 03:15 21.62937 97.36372 34855 ft 545 kts 108°
2026-05-08 03:15 21.60954 97.44253 34851 ft 544 kts 108°
2026-05-08 03:16 21.58985 97.52065 34851 ft 544 kts 108°
2026-05-08 03:16 21.56999 97.59924 34851 ft 544 kts 108°
2026-05-08 03:17 21.55010 97.67783 34855 ft 544 kts 108°
2026-05-08 03:17 21.53032 97.75576 34853 ft 544 kts 108°
2026-05-08 03:18 21.51037 97.83420 34850 ft 544 kts 108°
2026-05-08 03:18 21.49036 97.91274 34846 ft 544 kts 108°
2026-05-08 03:19 21.47038 97.99099 34846 ft 544 kts 108°
2026-05-08 03:19 21.45044 98.06896 34843 ft 545 kts 108°
2026-05-08 03:20 21.43037 98.14723 34845 ft 543 kts 108°
2026-05-08 03:20 21.41022 98.22561 34849 ft 545 kts 108°
2026-05-08 03:21 21.39344 98.29076 34839 ft 543 kts 108°
2026-05-08 03:21 21.37000 98.38163 34835 ft 542 kts 108°
2026-05-08 03:22 21.35324 98.44648 34836 ft 541 kts 108°
2026-05-08 03:22 21.33305 98.52442 34844 ft 542 kts 108°
2026-05-08 03:23 21.31283 98.60228 34835 ft 541 kts 108°
2026-05-08 03:23 21.29256 98.68030 34840 ft 541 kts 108°
2026-05-08 03:24 21.27229 98.75813 34834 ft 540 kts 108°
2026-05-08 03:24 21.25214 98.83527 34843 ft 539 kts 108°
2026-05-08 03:25 21.23183 98.91285 34829 ft 539 kts 107°
2026-05-08 03:25 21.21159 98.99008 34835 ft 537 kts 107°
2026-05-08 03:26 21.19142 99.06682 34836 ft 537 kts 108°
2026-05-08 03:26 21.17112 99.14395 34840 ft 536 kts 108°
2026-05-08 03:27 21.15095 99.22045 34845 ft 536 kts 108°
2026-05-08 03:27 21.13062 99.29730 34849 ft 536 kts 108°
2026-05-08 03:28 21.11022 99.37433 34849 ft 536 kts 108°
2026-05-08 03:28 21.08985 99.45115 34856 ft 536 kts 108°
2026-05-08 03:29 21.06964 99.52722 34853 ft 533 kts 108°
2026-05-08 03:29 21.04923 99.60386 34854 ft 533 kts 108°
2026-05-08 03:30 21.01862 99.71846 34854 ft 534 kts 108°
2026-05-08 03:31 20.97778 99.87093 34849 ft 533 kts 108°
2026-05-08 03:32 20.94711 99.98501 34843 ft 531 kts 108°
2026-05-08 03:32 20.92662 100.06107 34846 ft 531 kts 108°
2026-05-08 03:33 20.90619 100.13673 34842 ft 532 kts 108°
2026-05-08 03:33 20.88562 100.21275 34842 ft 531 kts 108°
2026-05-08 03:34 20.86517 100.28822 34838 ft 530 kts 108°
2026-05-08 03:34 20.84458 100.36411 34838 ft 530 kts 108°
2026-05-08 03:35 20.82640 100.44058 34842 ft 532 kts 99°
2026-05-08 03:35 20.82349 100.51931 34844 ft 534 kts 86°
2026-05-08 03:36 20.83282 100.59829 34844 ft 533 kts 83°
2026-05-08 03:36 20.84224 100.67624 34846 ft 531 kts 83°
2026-05-08 03:37 20.85168 100.75465 34851 ft 531 kts 83°
2026-05-08 03:37 20.86112 100.83321 34853 ft 531 kts 83°
2026-05-08 03:38 20.87052 100.91168 34863 ft 531 kts 83°
2026-05-08 03:38 20.87982 100.98973 34867 ft 531 kts 83°
2026-05-08 03:39 20.88919 101.06832 34875 ft 531 kts 83°
2026-05-08 03:39 20.89847 101.14672 34870 ft 532 kts 83°
2026-05-08 03:40 20.90769 101.22488 34872 ft 533 kts 83°
2026-05-08 03:40 20.91693 101.30365 34905 ft 531 kts 83°
2026-05-08 03:41 20.92606 101.38163 34903 ft 530 kts 83°
2026-05-08 03:41 20.93522 101.46019 34904 ft 530 kts 83°
2026-05-08 03:42 20.94430 101.53844 34902 ft 530 kts 83°
2026-05-08 03:42 20.95333 101.61647 34896 ft 531 kts 83°
2026-05-08 03:43 20.96239 101.69510 34881 ft 529 kts 83°
2026-05-08 03:43 20.97130 101.77289 34869 ft 528 kts 83°
2026-05-08 03:44 20.98021 101.85102 34868 ft 529 kts 83°
2026-05-08 03:44 20.98907 101.92883 34872 ft 529 kts 83°
2026-05-08 03:45 20.99793 102.00697 34871 ft 528 kts 84°
2026-05-08 03:45 21.00674 102.08510 34863 ft 528 kts 84°
2026-05-08 03:46 21.01545 102.16268 34860 ft 526 kts 84°
2026-05-08 03:46 21.02417 102.24065 34851 ft 527 kts 84°
2026-05-08 03:47 21.03288 102.31888 34864 ft 530 kts 84°
2026-05-08 03:47 21.04156 102.39706 34850 ft 530 kts 84°
2026-05-08 03:48 21.05019 102.47523 34853 ft 528 kts 84°
2026-05-08 03:48 21.05881 102.55359 34843 ft 529 kts 84°
2026-05-08 03:49 21.06737 102.63175 34840 ft 529 kts 84°
2026-05-08 03:49 21.07586 102.70967 34839 ft 528 kts 84°
2026-05-08 03:50 21.08436 102.78810 34826 ft 528 kts 84°
2026-05-08 03:50 21.09278 102.86582 34826 ft 528 kts 84°
2026-05-08 03:51 21.10122 102.94414 34831 ft 529 kts 84°
2026-05-08 03:51 21.10961 103.02252 34833 ft 528 kts 84°
2026-05-08 03:52 21.11793 103.10075 34832 ft 529 kts 84°
2026-05-08 03:52 21.12620 103.17854 34838 ft 529 kts 84°
2026-05-08 03:53 21.13448 103.25688 34835 ft 529 kts 84°
2026-05-08 03:53 21.14274 103.33537 34848 ft 528 kts 84°
2026-05-08 03:54 21.15089 103.41319 34843 ft 528 kts 84°
2026-05-08 03:54 21.15906 103.49150 34844 ft 528 kts 84°
2026-05-08 03:55 21.16719 103.56981 34846 ft 528 kts 84°
2026-05-08 03:55 21.17524 103.64769 34847 ft 528 kts 84°
2026-05-08 03:56 21.18332 103.72623 34843 ft 528 kts 84°
2026-05-08 03:56 21.19128 103.80396 34844 ft 528 kts 84°
2026-05-08 03:57 21.19919 103.88214 34835 ft 526 kts 84°
2026-05-08 03:57 21.20713 103.95999 34837 ft 524 kts 84°
2026-05-08 03:58 21.21453 104.03809 34850 ft 528 kts 88°
2026-05-08 03:58 21.21465 104.11714 34868 ft 532 kts 91°
2026-05-08 03:59 21.21440 104.19600 34866 ft 533 kts 91°
2026-05-08 03:59 21.21412 104.27568 34875 ft 530 kts 91°
2026-05-08 04:00 21.21375 104.35476 34870 ft 530 kts 91°
2026-05-08 04:00 21.21335 104.43336 34874 ft 531 kts 91°
2026-05-08 04:01 21.21291 104.51260 34877 ft 531 kts 91°
2026-05-08 04:01 21.21243 104.59131 34873 ft 530 kts 91°
2026-05-08 04:02 21.21191 104.67050 34871 ft 530 kts 91°
2026-05-08 04:02 21.21136 104.74919 34864 ft 529 kts 91°
2026-05-08 04:03 21.21077 104.82806 34865 ft 530 kts 91°
2026-05-08 04:03 21.20982 104.94676 34861 ft 531 kts 91°
2026-05-08 04:04 21.20914 105.02555 34862 ft 531 kts 91°
2026-05-08 04:04 21.20841 105.10476 34856 ft 531 kts 91°
2026-05-08 04:05 21.20857 105.18397 34856 ft 531 kts 90°
2026-05-08 04:05 21.20948 105.26322 34847 ft 531 kts 90°
2026-05-08 04:06 21.21017 105.34182 34844 ft 526 kts 90°
2026-05-08 04:06 21.21064 105.40705 34840 ft 525 kts 90°
2026-05-08 04:07 21.21115 105.48569 34845 ft 526 kts 90°
2026-05-08 04:07 21.21163 105.56420 34846 ft 526 kts 90°
2026-05-08 04:08 21.21208 105.64259 34855 ft 526 kts 90°
2026-05-08 04:08 21.21249 105.72050 34858 ft 524 kts 90°
2026-05-08 04:09 21.22165 105.79767 34857 ft 525 kts 72°
2026-05-08 04:09 21.23577 105.83373 34856 ft 525 kts 60°
2026-05-08 04:09 21.25582 105.86636 34860 ft 524 kts 50°
2026-05-08 04:10 21.28081 105.89415 34858 ft 522 kts 39°
2026-05-08 04:10 21.30908 105.91843 34861 ft 522 kts 37°
2026-05-08 04:10 21.36585 105.96752 34842 ft 522 kts 38°
2026-05-08 04:11 21.42191 106.01638 34846 ft 522 kts 38°
2026-05-08 04:11 21.47848 106.06570 34849 ft 522 kts 38°
2026-05-08 04:12 21.53468 106.11471 34853 ft 522 kts 38°
2026-05-08 04:12 21.59113 106.16401 34853 ft 522 kts 38°
2026-05-08 04:13 21.64758 106.21336 34870 ft 522 kts 38°
2026-05-08 04:13 21.70416 106.26286 34875 ft 524 kts 37°
2026-05-08 04:14 21.76042 106.31215 34876 ft 524 kts 37°
2026-05-08 04:14 21.81695 106.36171 34898 ft 523 kts 37°
2026-05-08 04:15 21.87335 106.41120 34885 ft 521 kts 37°
2026-05-08 04:15 21.92926 106.46032 34888 ft 521 kts 37°
2026-05-08 04:16 21.98567 106.50988 34898 ft 523 kts 37°
2026-05-08 04:16 22.04239 106.55926 34903 ft 523 kts 37°
2026-05-08 04:17 22.09872 106.60832 34919 ft 523 kts 37°
2026-05-08 04:17 22.15551 106.65787 34916 ft 523 kts 37°
2026-05-08 04:18 22.20917 106.71128 34917 ft 525 kts 43°
2026-05-08 04:18 22.26098 106.76644 34929 ft 526 kts 42°
2026-05-08 04:19 22.31325 106.82211 34933 ft 527 kts 44°
2026-05-08 04:19 22.33612 106.85265 34929 ft 530 kts 55°
2026-05-08 04:19 22.35414 106.88748 34929 ft 532 kts 65°
2026-05-08 04:20 22.37407 106.96465 34933 ft 534 kts 79°
2026-05-08 04:20 22.38818 107.04313 34932 ft 534 kts 78°
2026-05-08 04:21 22.40248 107.12188 34931 ft 533 kts 78°
2026-05-08 04:21 22.41665 107.20059 34932 ft 533 kts 79°
2026-05-08 04:22 22.43069 107.27894 34930 ft 533 kts 79°
2026-05-08 04:22 22.44498 107.35790 34934 ft 533 kts 78°
2026-05-08 04:23 22.45912 107.43618 34938 ft 535 kts 78°
2026-05-08 04:23 22.47338 107.51539 34938 ft 535 kts 79°
2026-05-08 04:24 22.48757 107.59449 34942 ft 535 kts 79°
2026-05-08 04:24 22.50164 107.67322 34942 ft 535 kts 79°
2026-05-08 04:25 22.51575 107.75238 34945 ft 536 kts 78°
2026-05-08 04:25 22.52981 107.83145 34949 ft 538 kts 78°
2026-05-08 04:26 22.54393 107.91108 34952 ft 538 kts 79°
2026-05-08 04:26 22.55799 107.99061 34951 ft 538 kts 79°
2026-05-08 04:27 22.57192 108.06974 34954 ft 537 kts 79°
2026-05-08 04:27 22.58579 108.14931 34956 ft 538 kts 81°
2026-05-08 04:28 22.59503 108.22929 34960 ft 538 kts 83°
2026-05-08 04:28 22.60430 108.30969 34957 ft 538 kts 83°
2026-05-08 04:29 22.61351 108.39009 34953 ft 538 kts 83°
2026-05-08 04:29 22.62263 108.47049 34955 ft 537 kts 83°
2026-05-08 04:30 22.63165 108.55035 34950 ft 538 kts 83°
2026-05-08 04:30 22.64073 108.63098 34957 ft 539 kts 83°
2026-05-08 04:31 22.64971 108.71125 34953 ft 539 kts 83°
2026-05-08 04:31 22.65869 108.79192 34957 ft 540 kts 83°
2026-05-08 04:32 22.66769 108.87301 34957 ft 541 kts 83°
2026-05-08 04:32 22.67657 108.95343 34960 ft 541 kts 83°
2026-05-08 04:33 22.68548 109.03456 34960 ft 541 kts 83°
2026-05-08 04:33 22.69433 109.11548 34961 ft 541 kts 83°
2026-05-08 04:34 22.70331 109.19598 34957 ft 540 kts 82°
2026-05-08 04:34 22.71247 109.27685 34953 ft 540 kts 82°
2026-05-08 04:35 22.72171 109.35785 34958 ft 540 kts 82°
2026-05-08 04:35 22.73097 109.43833 34958 ft 541 kts 82°
2026-05-08 04:36 22.74029 109.51941 34956 ft 541 kts 82°
2026-05-08 04:36 22.74957 109.60042 34958 ft 542 kts 82°
2026-05-08 04:37 22.75875 109.68103 34959 ft 541 kts 82°
2026-05-08 04:37 22.76795 109.76218 34959 ft 541 kts 82°
2026-05-08 04:38 22.77709 109.84322 34956 ft 541 kts 82°
2026-05-08 04:38 22.78612 109.92367 34969 ft 543 kts 82°
2026-05-08 04:39 22.79523 110.00521 34957 ft 544 kts 82°
2026-05-08 04:39 22.80429 110.08668 34960 ft 544 kts 82°
2026-05-08 04:40 22.81328 110.16790 34966 ft 544 kts 82°
2026-05-08 04:40 22.82221 110.24893 34963 ft 543 kts 83°
2026-05-08 04:41 22.83115 110.33047 34963 ft 543 kts 82°
2026-05-08 04:41 22.84001 110.41156 34961 ft 543 kts 82°
2026-05-08 04:42 22.84885 110.49303 34964 ft 544 kts 82°
2026-05-08 04:42 22.85769 110.57443 34963 ft 543 kts 82°
2026-05-08 04:43 22.86723 110.65528 34967 ft 543 kts 82°
2026-05-08 04:43 22.87689 110.73667 34960 ft 543 kts 82°
2026-05-08 04:44 22.88636 110.81760 34962 ft 543 kts 82°
2026-05-08 04:44 22.89580 110.89889 34961 ft 541 kts 82°
2026-05-08 04:45 22.90517 110.97997 34959 ft 541 kts 82°
2026-05-08 04:45 22.91445 111.06058 34954 ft 542 kts 82°
2026-05-08 04:46 22.92377 111.14194 34971 ft 543 kts 82°
2026-05-08 04:46 22.93305 111.22334 34981 ft 543 kts 82°
2026-05-08 04:47 22.94223 111.30424 34972 ft 541 kts 82°
2026-05-08 04:47 22.95139 111.38539 34970 ft 542 kts 82°
2026-05-08 04:48 22.96054 111.46671 34975 ft 544 kts 82°
2026-05-08 04:48 22.96967 111.54814 34971 ft 541 kts 82°
2026-05-08 04:49 22.97861 111.62892 34971 ft 541 kts 82°
2026-05-08 04:49 22.98743 111.70998 34958 ft 541 kts 82°
2026-05-08 04:50 22.99627 111.79138 34964 ft 542 kts 82°
2026-05-08 04:50 23.00501 111.87225 34958 ft 542 kts 82°
2026-05-08 04:51 23.01376 111.95366 34958 ft 541 kts 82°
2026-05-08 04:51 23.02101 112.02127 34956 ft 541 kts 82°
2026-05-08 04:52 23.02962 112.10202 34952 ft 541 kts 82°
2026-05-08 04:52 23.03968 112.19690 34956 ft 544 kts 82°
2026-05-08 04:53 23.04691 112.26537 34957 ft 544 kts 82°
2026-05-08 04:53 23.05542 112.34653 34959 ft 546 kts 82°
2026-05-08 04:54 23.06400 112.42861 34957 ft 546 kts 82°
2026-05-08 04:54 23.06836 112.51115 34958 ft 549 kts 92°
2026-05-08 04:55 23.06275 112.59347 34957 ft 549 kts 94°
2026-05-08 04:55 23.05722 112.67635 34957 ft 548 kts 94°
2026-05-08 04:56 23.05165 112.75919 34952 ft 549 kts 94°
2026-05-08 04:56 23.04601 112.84174 34948 ft 550 kts 94°
2026-05-08 04:57 23.04032 112.92421 34942 ft 550 kts 94°
2026-05-08 04:57 23.03455 113.00722 34942 ft 550 kts 94°
2026-05-08 04:58 23.03018 113.09015 34946 ft 550 kts 86°
2026-05-08 04:58 23.03491 113.13068 34943 ft 547 kts 75°
2026-05-08 04:58 23.04620 113.16998 34945 ft 544 kts 64°
2026-05-08 04:59 23.06352 113.20607 34944 ft 538 kts 53°
2026-05-08 04:59 23.08633 113.23794 34942 ft 531 kts 42°
2026-05-08 04:59 23.11374 113.26445 34944 ft 524 kts 31°
2026-05-08 04:59 23.14454 113.28512 34943 ft 518 kts 23°
2026-05-08 05:00 23.20767 113.32218 34970 ft 519 kts 25°
2026-05-08 05:00 23.26970 113.36310 34972 ft 521 kts 27°
2026-05-08 05:01 23.33085 113.40570 34976 ft 521 kts 28°
2026-05-08 05:01 23.39157 113.44834 34956 ft 521 kts 28°
2026-05-08 05:02 23.45222 113.49093 34957 ft 520 kts 28°
2026-05-08 05:02 23.51317 113.53373 34956 ft 521 kts 28°
2026-05-08 05:03 23.57424 113.57666 34962 ft 521 kts 28°
2026-05-08 05:03 23.63535 113.61923 34966 ft 520 kts 27°
2026-05-08 05:04 23.69626 113.66106 34971 ft 520 kts 27°
2026-05-08 05:04 23.75776 113.70341 34997 ft 523 kts 27°
2026-05-08 05:05 23.81945 113.74602 34996 ft 523 kts 27°
2026-05-08 05:05 23.88050 113.78825 35001 ft 521 kts 27°
2026-05-08 05:06 23.94188 113.83076 35010 ft 522 kts 27°
2026-05-08 05:06 24.00328 113.87334 35019 ft 524 kts 27°
2026-05-08 05:07 24.06526 113.91634 35033 ft 526 kts 27°
2026-05-08 05:07 24.12662 113.95899 35028 ft 525 kts 27°
2026-05-08 05:08 24.18844 114.00186 35035 ft 526 kts 27°
2026-05-08 05:08 24.25037 114.04484 35037 ft 525 kts 27°
2026-05-08 05:09 24.31218 114.08660 35053 ft 521 kts 21°
2026-05-08 05:09 24.37870 114.11592 35062 ft 511 kts 10°
2026-05-08 05:10 24.48205 114.13990 35074 ft 505 kts
2026-05-08 05:11 24.55122 114.15503 35087 ft 505 kts
2026-05-08 05:11 24.61982 114.16996 35098 ft 504 kts
2026-05-08 05:12 24.68886 114.18491 35104 ft 504 kts
2026-05-08 05:12 24.75780 114.19990 35104 ft 504 kts
2026-05-08 05:13 24.82632 114.21477 35125 ft 504 kts
2026-05-08 05:13 24.89527 114.22976 35123 ft 503 kts
2026-05-08 05:14 24.96410 114.24474 35123 ft 504 kts
2026-05-08 05:14 25.03251 114.25967 35127 ft 504 kts
2026-05-08 05:15 25.09976 114.28505 35148 ft 518 kts 20°
2026-05-08 05:15 25.16110 114.32873 35157 ft 529 kts 32°
2026-05-08 05:16 25.21927 114.37762 35152 ft 528 kts 31°
2026-05-08 05:16 25.27799 114.42674 35152 ft 528 kts 32°
2026-05-08 05:17 25.33621 114.47565 35175 ft 528 kts 31°
2026-05-08 05:17 25.39473 114.52492 35171 ft 527 kts 31°
2026-05-08 05:18 25.45288 114.57393 35173 ft 528 kts 31°
2026-05-08 05:18 25.51122 114.62316 35174 ft 528 kts 31°
2026-05-08 05:19 25.56972 114.67260 35173 ft 528 kts 31°
2026-05-08 05:19 25.62827 114.72214 35194 ft 529 kts 31°
2026-05-08 05:20 25.68625 114.77126 35194 ft 528 kts 31°
2026-05-08 05:20 25.74467 114.82082 35199 ft 528 kts 31°
2026-05-08 05:21 25.80261 114.87099 35195 ft 531 kts 36°
2026-05-08 05:21 25.85497 114.93027 35226 ft 540 kts 41°
2026-05-08 05:22 25.90621 114.99096 35229 ft 539 kts 41°
2026-05-08 05:22 25.95763 115.05185 35223 ft 538 kts 41°
2026-05-08 05:23 26.00846 115.11225 35226 ft 537 kts 41°
2026-05-08 05:23 26.05972 115.17322 35221 ft 538 kts 41°
2026-05-08 05:24 26.11062 115.23387 35220 ft 538 kts 41°
2026-05-08 05:24 26.16172 115.29484 35215 ft 538 kts 41°
2026-05-08 05:25 26.21288 115.35598 35224 ft 538 kts 41°
2026-05-08 05:25 26.26376 115.41687 35218 ft 538 kts 41°
2026-05-08 05:26 26.31495 115.47815 35241 ft 540 kts 41°
2026-05-08 05:26 26.36597 115.53940 35243 ft 540 kts 41°
2026-05-08 05:27 26.41723 115.60102 35249 ft 540 kts 41°
2026-05-08 05:27 26.46806 115.66221 35243 ft 540 kts 41°
2026-05-08 05:28 26.51909 115.72368 35263 ft 540 kts 41°
2026-05-08 05:28 26.57001 115.78508 35262 ft 541 kts 41°
2026-05-08 05:29 26.62117 115.84692 35266 ft 541 kts 41°
2026-05-08 05:29 26.67194 115.90835 35265 ft 541 kts 41°
2026-05-08 05:30 26.72311 115.97037 35279 ft 541 kts 41°
2026-05-08 05:30 26.77425 116.03244 35288 ft 541 kts 41°
2026-05-08 05:31 26.82497 116.09408 35289 ft 541 kts 41°
2026-05-08 05:31 26.87601 116.15618 35283 ft 541 kts 41°
2026-05-08 05:32 26.92673 116.21797 35291 ft 541 kts 41°
2026-05-08 05:32 26.97814 116.27999 35306 ft 542 kts 40°
2026-05-08 05:33 27.02966 116.34202 35312 ft 542 kts 40°
2026-05-08 05:33 27.08069 116.40362 35313 ft 542 kts 40°
2026-05-08 05:34 27.13202 116.46571 35311 ft 542 kts 40°
2026-05-08 05:34 27.18346 116.52803 35332 ft 543 kts 40°
2026-05-08 05:35 27.23476 116.58971 35328 ft 542 kts 39°
2026-05-08 05:35 27.28733 116.65048 35331 ft 541 kts 39°
2026-05-08 05:36 27.33983 116.71123 35331 ft 541 kts 39°
2026-05-08 05:36 27.39193 116.77205 35355 ft 543 kts 39°
2026-05-08 05:37 27.44451 116.83353 35353 ft 543 kts 39°
2026-05-08 05:37 27.49704 116.89505 35348 ft 543 kts 39°
2026-05-08 05:38 27.54933 116.95610 35350 ft 542 kts 39°
2026-05-08 05:38 27.60208 117.01690 35382 ft 543 kts 38°
2026-05-08 05:39 27.65477 117.07777 35387 ft 545 kts 38°
2026-05-08 05:39 27.69882 117.12877 35389 ft 544 kts 39°
2026-05-08 05:40 27.75175 117.19021 35386 ft 544 kts 39°
2026-05-08 05:40 27.80418 117.25127 35398 ft 544 kts 39°
2026-05-08 05:41 27.85708 117.31288 35437 ft 546 kts 38°
2026-05-08 05:41 27.91006 117.37458 35426 ft 545 kts 38°
2026-05-08 05:42 27.96258 117.43597 35451 ft 547 kts 39°
2026-05-08 05:42 28.01555 117.49791 35443 ft 545 kts 39°
2026-05-08 05:43 28.06843 117.55981 35480 ft 547 kts 38°
2026-05-08 05:43 28.12107 117.62151 35487 ft 547 kts 39°
2026-05-08 05:44 28.17394 117.68363 35486 ft 546 kts 39°
2026-05-08 05:44 28.22648 117.74543 35492 ft 546 kts 39°
2026-05-08 05:45 28.27930 117.80762 35496 ft 547 kts 39°
2026-05-08 05:45 28.33209 117.86989 35498 ft 547 kts 39°
2026-05-08 05:46 28.38448 117.93180 35499 ft 547 kts 39°
2026-05-08 05:46 28.43723 117.99445 35502 ft 548 kts 40°
2026-05-08 05:47 28.48877 118.05802 35523 ft 549 kts 40°
2026-05-08 05:47 28.54042 118.12193 35527 ft 549 kts 40°
2026-05-08 05:48 28.59230 118.18594 35525 ft 549 kts 40°
2026-05-08 05:48 28.64411 118.24989 35554 ft 549 kts 40°
2026-05-08 05:49 28.69571 118.31367 35561 ft 550 kts 40°
2026-05-08 05:49 28.74737 118.37765 35556 ft 550 kts 40°
2026-05-08 05:50 28.79912 118.44187 35558 ft 549 kts 40°
2026-05-08 05:50 28.85094 118.50619 35599 ft 550 kts 40°
2026-05-08 05:51 28.90242 118.57025 35596 ft 550 kts 40°
2026-05-08 05:51 28.95423 118.63485 35604 ft 550 kts 40°
2026-05-08 05:52 29.00567 118.69906 35598 ft 549 kts 40°
2026-05-08 05:52 29.05728 118.76355 35631 ft 551 kts 40°
2026-05-08 05:53 29.10904 118.82831 35636 ft 551 kts 39°
2026-05-08 05:53 29.16038 118.89260 35645 ft 549 kts 40°
2026-05-08 05:54 29.21196 118.95758 35655 ft 550 kts 40°
2026-05-08 05:54 29.26320 119.02219 35670 ft 550 kts 40°
2026-05-08 05:55 29.31484 119.08724 35669 ft 550 kts 40°
2026-05-08 05:55 29.36634 119.15233 35669 ft 551 kts 40°
2026-05-08 05:56 29.41751 119.21720 35665 ft 551 kts 40°
2026-05-08 05:56 29.46895 119.28258 35690 ft 551 kts 40°
2026-05-08 05:57 29.52034 119.34801 35691 ft 551 kts 40°
2026-05-08 05:57 29.57144 119.41303 35693 ft 551 kts 40°
2026-05-08 05:58 29.61580 119.48618 35691 ft 570 kts 60°
2026-05-08 05:58 29.62969 119.52874 35726 ft 579 kts 71°
2026-05-08 05:58 29.63743 119.57438 35718 ft 584 kts 82°
2026-05-08 05:58 29.63850 119.62114 35727 ft 586 kts 93°
2026-05-08 05:59 29.63425 119.66790 35737 ft 586 kts 97°
2026-05-08 05:59 29.62654 119.76075 35733 ft 587 kts 92°
2026-05-08 06:00 29.62320 119.85447 35725 ft 586 kts 90°
2026-05-08 06:00 29.62114 119.94782 35722 ft 585 kts 90°
2026-05-08 06:01 29.61909 120.04155 35728 ft 585 kts 90°
2026-05-08 06:01 29.61696 120.13518 35712 ft 585 kts 90°
2026-05-08 06:02 29.62048 120.22768 35710 ft 579 kts 75°
2026-05-08 06:02 29.63133 120.27199 35711 ft 573 kts 64°
2026-05-08 06:02 29.64830 120.31305 35715 ft 564 kts 53°
2026-05-08 06:02 29.67070 120.34952 35751 ft 553 kts 42°
2026-05-08 06:03 29.69625 120.38177 35757 ft 549 kts 39°
2026-05-08 06:03 29.74757 120.44796 35740 ft 553 kts 43°
2026-05-08 06:04 29.79567 120.51720 35742 ft 557 kts 45°
2026-05-08 06:04 29.84276 120.58747 35738 ft 556 kts 46°
2026-05-08 06:05 29.88995 120.65818 35776 ft 556 kts 46°
2026-05-08 06:05 29.93697 120.72866 35768 ft 556 kts 46°
2026-05-08 06:06 29.98417 120.79946 35770 ft 556 kts 46°
2026-05-08 06:06 30.03139 120.87043 35771 ft 556 kts 46°
2026-05-08 06:07 30.07730 120.94188 35772 ft 558 kts 47°
2026-05-08 06:07 30.12342 121.01415 35764 ft 557 kts 47°
2026-05-08 06:08 30.16978 121.08617 35762 ft 557 kts 47°
2026-05-08 06:08 30.21582 121.15780 35794 ft 557 kts 47°
2026-05-08 06:09 30.26180 121.23026 35789 ft 560 kts 50°
2026-05-08 06:09 30.30412 121.30542 35793 ft 560 kts 51°
2026-05-08 06:10 30.34695 121.38105 35797 ft 560 kts 51°
2026-05-08 06:10 30.38958 121.45613 35821 ft 560 kts 51°
2026-05-08 06:11 30.43256 121.53151 35811 ft 559 kts 51°
2026-05-08 06:11 30.47544 121.60693 35814 ft 560 kts 51°
2026-05-08 06:12 30.51805 121.68210 35813 ft 560 kts 51°
2026-05-08 06:12 30.56085 121.75777 35854 ft 558 kts 51°
2026-05-08 06:13 30.60318 121.83273 35841 ft 558 kts 51°
2026-05-08 06:13 30.64582 121.90837 35838 ft 558 kts 51°
2026-05-08 06:14 30.68844 121.98412 35845 ft 559 kts 51°
2026-05-08 06:14 30.73063 122.05930 35878 ft 556 kts 51°
2026-05-08 06:15 30.77349 122.13354 35864 ft 550 kts 44°
2026-05-08 06:15 30.79994 122.16569 35868 ft 539 kts 33°
2026-05-08 06:15 30.82964 122.19082 35869 ft 527 kts 22°
2026-05-08 06:15 30.86226 122.20903 35873 ft 513 kts 11°
2026-05-08 06:16 30.89608 122.22159 35899 ft 513 kts 12°
2026-05-08 06:16 30.92886 122.23958 35899 ft 526 kts 24°
2026-05-08 06:16 30.95889 122.26477 35902 ft 538 kts 35°
2026-05-08 06:16 30.98482 122.29603 35901 ft 549 kts 46°
2026-05-08 06:17 31.02228 122.37496 35898 ft 565 kts 68°
2026-05-08 06:17 31.03191 122.41955 35899 ft 569 kts 79°
2026-05-08 06:17 31.03492 122.46568 35900 ft 572 kts 91°
2026-05-08 06:18 31.03128 122.51121 35932 ft 571 kts 102°
2026-05-08 06:18 31.02133 122.55610 35939 ft 569 kts 109°
2026-05-08 06:18 31.00416 122.64604 35927 ft 570 kts 97°
2026-05-08 06:19 30.99992 122.73845 35924 ft 571 kts 90°
2026-05-08 06:19 30.99988 122.83057 35923 ft 571 kts 89°
2026-05-08 06:20 31.00008 122.92330 35909 ft 570 kts 88°
2026-05-08 06:20 31.00351 122.96869 35906 ft 569 kts 77°
2026-05-08 06:20 31.01359 123.01325 35906 ft 564 kts 66°
2026-05-08 06:21 31.02985 123.05460 35909 ft 558 kts 55°
2026-05-08 06:21 31.05141 123.09207 35915 ft 552 kts 47°
2026-05-08 06:21 31.09835 123.16285 35942 ft 551 kts 47°
2026-05-08 06:22 31.14372 123.23438 35942 ft 553 kts 49°
2026-05-08 06:22 31.18856 123.30747 35939 ft 553 kts 49°
2026-05-08 06:23 31.23328 123.38090 35941 ft 553 kts 49°
2026-05-08 06:23 31.27792 123.45427 35961 ft 553 kts 49°
2026-05-08 06:24 31.32231 123.52735 35956 ft 553 kts 49°
2026-05-08 06:24 31.36701 123.60074 35955 ft 553 kts 49°
2026-05-08 06:25 31.40435 123.66170 35989 ft 553 kts 49°
2026-05-08 06:25 31.45645 123.74701 35987 ft 553 kts 49°
2026-05-08 06:26 31.49370 123.80819 35985 ft 554 kts 49°
2026-05-08 06:26 31.53843 123.88177 35987 ft 554 kts 49°
2026-05-08 06:27 31.58276 123.95574 35970 ft 556 kts 53°
2026-05-08 06:27 31.61699 124.03785 35975 ft 565 kts 68°
2026-05-08 06:28 31.63811 124.12653 35970 ft 567 kts 73°
2026-05-08 06:28 31.65827 124.21629 35957 ft 567 kts 73°
2026-05-08 06:29 31.67821 124.30552 35993 ft 567 kts 73°
2026-05-08 06:29 31.69810 124.39528 35990 ft 567 kts 73°
2026-05-08 06:30 31.71792 124.48520 35985 ft 567 kts 73°
2026-05-08 06:30 31.73753 124.57446 35981 ft 568 kts 73°
2026-05-08 06:31 31.75726 124.66454 35980 ft 568 kts 73°
2026-05-08 06:31 31.77678 124.75402 35996 ft 567 kts 73°
2026-05-08 06:32 31.79638 124.84420 35991 ft 568 kts 73°
2026-05-08 06:32 31.81581 124.93434 35990 ft 568 kts 76°
2026-05-08 06:33 31.82268 125.02672 35988 ft 571 kts 94°
2026-05-08 06:33 31.81050 125.11879 35984 ft 570 kts 103°
2026-05-08 06:34 31.79565 125.20989 35980 ft 569 kts 102°
2026-05-08 06:34 31.78070 125.30154 35964 ft 569 kts 102°
2026-05-08 06:35 31.76570 125.39248 35966 ft 569 kts 103°
2026-05-08 06:35 31.75052 125.48401 35961 ft 569 kts 103°
2026-05-08 06:36 31.73527 125.57547 35981 ft 570 kts 103°
2026-05-08 06:36 31.72804 125.66770 35980 ft 571 kts 86°
2026-05-08 06:37 31.74183 125.75925 35970 ft 568 kts 73°
2026-05-08 06:37 31.76197 125.84925 35972 ft 569 kts 73°
2026-05-08 06:38 31.78169 125.93895 35967 ft 569 kts 73°
2026-05-08 06:38 31.80143 126.02915 35998 ft 569 kts 73°
2026-05-08 06:39 31.82106 126.11920 35993 ft 570 kts 73°
2026-05-08 06:39 31.84070 126.20962 35993 ft 570 kts 73°
2026-05-08 06:40 31.86032 126.30021 35978 ft 570 kts 74°
2026-05-08 06:40 31.87972 126.39011 35977 ft 570 kts 74°
2026-05-08 06:41 31.89923 126.48087 36008 ft 571 kts 73°
2026-05-08 06:41 31.91907 126.57146 35989 ft 571 kts 73°
2026-05-08 06:42 31.93914 126.66192 35986 ft 570 kts 73°
2026-05-08 06:42 31.95898 126.75199 35977 ft 571 kts 73°
2026-05-08 06:43 31.97884 126.84270 36014 ft 570 kts 73°
2026-05-08 06:43 31.99855 126.93306 36013 ft 572 kts 73°
2026-05-08 06:44 32.01834 127.02414 36000 ft 572 kts 73°
2026-05-08 06:44 32.03860 127.11422 35997 ft 570 kts 69°
2026-05-08 06:45 32.06936 127.20022 35995 ft 567 kts 62°
2026-05-08 06:45 32.10161 127.28569 36000 ft 569 kts 63°
2026-05-08 06:46 32.13354 127.37079 36000 ft 569 kts 63°
2026-05-08 06:46 32.16565 127.45648 36000 ft 569 kts 63°
2026-05-08 06:47 32.19754 127.54169 36033 ft 572 kts 63°
2026-05-08 06:47 32.22970 127.62784 36031 ft 573 kts 63°
2026-05-08 06:48 32.26177 127.71401 36031 ft 572 kts 63°
2026-05-08 06:48 32.29363 127.79981 36007 ft 572 kts 63°
2026-05-08 06:49 32.32569 127.88638 36046 ft 575 kts 63°
2026-05-08 06:49 32.35771 127.97306 36023 ft 574 kts 63°
2026-05-08 06:50 32.38960 128.05962 36018 ft 573 kts 63°
2026-05-08 06:50 32.42142 128.14620 36019 ft 573 kts 63°
2026-05-08 06:51 32.45305 128.23246 35993 ft 573 kts 64°
2026-05-08 06:51 32.48475 128.31916 35991 ft 573 kts 64°
2026-05-08 06:52 32.51639 128.40593 36042 ft 573 kts 63°
2026-05-08 06:52 32.54798 128.49277 36030 ft 575 kts 64°
2026-05-08 06:53 32.57968 128.58015 36022 ft 575 kts 64°
2026-05-08 06:53 32.61111 128.66698 35999 ft 575 kts 64°
2026-05-08 06:54 32.64273 128.75461 36016 ft 577 kts 64°
2026-05-08 06:54 32.67171 128.84284 36015 ft 579 kts 72°
2026-05-08 06:55 32.69099 128.93605 36002 ft 581 kts 75°
2026-05-08 06:55 32.71013 129.02885 36056 ft 581 kts 75°
2026-05-08 06:56 32.72931 129.12237 36059 ft 583 kts 75°
2026-05-08 06:56 32.74843 129.21632 36049 ft 584 kts 75°
2026-05-08 06:57 32.76745 129.31020 36048 ft 584 kts 75°
2026-05-08 06:57 32.78628 129.40360 36051 ft 583 kts 75°
2026-05-08 06:58 32.80516 129.49757 36050 ft 584 kts 75°
2026-05-08 06:58 32.82390 129.59124 36018 ft 584 kts 76°
2026-05-08 06:59 32.84260 129.68510 36008 ft 582 kts 76°
2026-05-08 06:59 32.86105 129.77912 36050 ft 586 kts 76°
2026-05-08 07:00 32.87936 129.87327 36026 ft 585 kts 76°
2026-05-08 07:00 32.89763 129.96754 36026 ft 584 kts 76°
2026-05-08 07:01 32.91576 130.06135 36008 ft 584 kts 76°
2026-05-08 07:01 32.93394 130.15583 36053 ft 585 kts 76°